This demonstration page uses our WeatherBlox Daily Observations layout. Learn more.

Left ArrowRight Arrow

Hourly Observations for September 5, 2017

Temp ( °F °C ) Dew Point ( °F °C ) Humidity (%) Winds ( mph kmh ) Pressure ( in mb ) Visibility ( mi km ) Precip ( " mm )
12:51 am 00:51 Clear 78 25.6 45 7.2 31 31 ESE 5 7 29.82 1010 10 16.0934 0 0
1:51 am 01:51 Clear 80 26.7 44 6.7 28 28 E 7 11 29.8 1009 10 16.0934 0 0
2:51 am 02:51 Clear 76 24.4 45 7.2 33 33 ESE 6 9 29.81 1010 10 16.0934 0 0
3:51 am 03:51 Clear 72 22.2 48 8.9 43 43 Calm 29.84 1011 10 16.0934 0 0
4:51 am 04:51 Clear 68 20 46 7.8 45 45 ENE 6 9 29.86 1011 10 16.0934 0 0
5:51 am 05:51 Clear 73 22.8 46 7.8 38 38 S 8 13 29.88 1012 10 16.0934 0 0
6:51 am 06:51 Sunny 75 23.9 48 8.9 39 39 SE 9 15 29.9 1013 10 16.0934 0 0
7:51 am 07:51 Sunny 80 26.7 48 8.9 33 33 SE 14 22 29.92 1013 10 16.0934 0 0
8:51 am 08:51 Sunny 85 29.4 48 8.9 28 28 ESE 13 20 29.93 1014 10 16.0934 0 0
9:51 am 09:51 Sunny 88 31.1 48 8.9 25 25 SE 7 11 29.93 1014 10 16.0934 0 0
10:51 am 10:51 Sunny 94 34.4 47 8.3 20 20 S 15 24 29.92 1013 10 16.0934 0 0
11:51 am 11:51 Sunny 96 35.6 46 7.8 18 18 S 7 11 29.89 1012 10 16.0934 0 0
12:51 pm 12:51 Sunny 97 36.1 44 6.7 16 16 VRB 6 9 29.86 1011 10 16.0934 0 0
1:51 pm 13:51 Sunny 100 37.8 43 6.1 14 14 SSE 7 11 29.82 1010 10 16.0934 0 0
2:51 pm 14:51 Sunny 99 37.2 42 5.6 14 14 S 14 22 29.81 1009 10 16.0934 0 0
3:51 pm 15:51 Sunny 100 37.8 41 5 13 13 SSE 12 19 29.8 1009 10 16.0934 0 0
4:51 pm 16:51 Sunny 98 36.7 38 3.3 12 12 SSE 12 19 29.79 1009 10 16.0934 0 0
5:51 pm 17:51 Sunny 95 35 38 3.3 14 14 SSE 16 26 29.79 1009 10 16.0934 0 0
6:51 pm 18:51 Clear 91 32.8 38 3.3 15 15 SSE 8 13 29.81 1009 10 16.0934 0 0
7:51 pm 19:51 Clear 85 29.4 38 3.3 19 19 SE 7 11 29.83 1010 10 16.0934 0 0
8:51 pm 20:51 Clear 82 27.8 38 3.3 21 21 SE 5 7 29.86 1011 10 16.0934 0 0
9:51 pm 21:51 Clear 79 26.1 39 3.9 24 24 ESE 5 7 29.88 1012 10 16.0934 0 0
10:51 pm 22:51 Clear 79 26.1 39 3.9 24 24 ESE 8 13 29.89 1012 10 16.0934 0 0
11:51 pm 23:51 Clear 77 25 43 6.1 30 30 ESE 7 11 29.89 1012 10 16.0934 0 0

Powered by AerisWeather